Home   Weather   Arlington   Past weeks
Flag for USA

Past Weather in Arlington, Texas, USA — Yesterday and Last 2 Weeks

Now
62 °F

Clear.


Feels Like: 62 °F
Forecast: 74 / 48 °F
Wind: No wind

Location: Arlington Municipal Airport

Current Time: Mar 21, 2019 at 10:06:23 pm

Latest Report: Mar 21, 2019 at 8:53 pm


Visibility: 10 mi

Pressure: 30.10 "Hg

Humidity: 39%

Dew Point: 37 °F

Location of ArlingtonLocation

Past Weather in Arlington — Graph

°F

Arlington Temperature Yesterday

Maximum temperature yesterday: 66 °F (at 4:53 pm)
Minimum temperature yesterday: 43 °F (at 6:53 am)
Average temperature yesterday: 56 °F

High & Low Weather Summary for the Past Weeks

 TemperatureHumidityPressure
High79 °F (Mar 8, 3:53 pm)96% (Mar 12, 7:08 am)30.49 "Hg (Mar 12, 7:08 am)
Low34 °F (Mar 17, 7:53 am)19% (Mar 17, 4:53 pm)29.48 "Hg (Mar 13, 5:53 pm)
Average58 °F61%30.08 "Hg
* Reported Mar 6 7:53 pm — Mar 21 8:53 pm, Arlington. Weather by CustomWeather, © 2019

Note: Actual official high and low records may vary slightly from our data, if they occured in-between our weather recording intervals... More about our weather records

Advertising

Arlington Weather History for the Previous 24 Hours

Scroll right to see more
 ConditionsComfort  
Time TempWeatherWind HumidityBarometerVisibility
8:53 pm
Thu, Mar 21
62 °FClear.No wind39%30.10 "Hg10 mi
7:53 pm66 °FClear.5 mph34%30.11 "Hg10 mi
6:53 pm73 °FSunny.8 mph24%30.09 "Hg10 mi
5:53 pm75 °FSunny.N/A21%30.10 "Hg10 mi
4:53 pm76 °FSunny.8 mph21%30.11 "HgN/A
3:53 pm76 °FSunny.9 mph20%30.12 "Hg10 mi
2:53 pm76 °FSunny.8 mph23%30.14 "Hg10 mi
1:53 pm75 °FSunny.14 mph21%30.17 "Hg10 mi
12:53 pm73 °FSunny.10 mph27%30.19 "Hg10 mi
11:53 am70 °FSunny.13 mph34%30.21 "Hg10 mi
10:53 am67 °FSunny.10 mph39%30.22 "Hg10 mi
9:53 am60 °FSunny.7 mph46%30.22 "Hg10 mi
8:53 am53 °FSunny.3 mph56%30.22 "Hg10 mi
7:53 am43 °FSunny.No wind79%30.21 "Hg10 mi
6:53 am40 °FClear.No wind86%30.19 "Hg10 mi
5:53 am43 °FClear.No wind76%30.19 "Hg10 mi
4:53 am47 °FClear.3 mph69%30.18 "Hg10 mi
3:53 am48 °FClear.5 mph66%30.19 "Hg10 mi
2:53 am45 °FClear.3 mph74%30.20 "Hg10 mi
1:53 am48 °FClear.3 mph66%30.21 "Hg10 mi
12:53 am51 °FClear.6 mph59%30.22 "Hg10 mi
11:53 pm
Wed, Mar 20
47 °FCool.3 mph69%30.23 "HgN/A
10:53 pm49 °FClear.5 mph66%30.24 "Hg10 mi
Weather by CustomWeather, © 2019

See weather overview